Time,TemperatureF,DewpointF,PressureIn,WindDirection,WindDirectionDegrees,WindSpeedMPH,WindSpeedGustMPH,Humidity,HourlyPrecipIn,Conditions,Clouds,dailyrainin,SoftwareType,DateUTC
2013-02-26 00:02:00,26.6,23.5,30.08,West,270,0.0,-999.0,88,-99.99,,,0.00,Acu-Link.com,2013-02-26 05:02:00,
2013-02-26 00:17:00,26.2,23.1,30.10,NW,315,1.1,-999.0,88,-99.99,,,0.00,Acu-Link.com,2013-02-26 05:17:00,
2013-02-26 00:32:00,26.2,22.6,30.09,South,180,0.0,-999.0,86,-99.99,,,0.00,Acu-Link.com,2013-02-26 05:32:00,
2013-02-26 00:47:00,26.8,23.5,30.11,NNW,337,0.0,-999.0,87,-99.99,,,0.00,Acu-Link.com,2013-02-26 05:47:00,
2013-02-26 01:02:00,26.6,23.0,30.09,NW,315,0.0,-999.0,86,-99.99,,,0.00,Acu-Link.com,2013-02-26 06:02:00,
2013-02-26 01:17:00,26.6,22.4,30.09,East,90,0.0,-999.0,84,-99.99,,,0.00,Acu-Link.com,2013-02-26 06:17:00,
2013-02-26 01:32:00,27.0,22.8,30.09,SE,135,1.1,-999.0,84,-99.99,,,0.00,Acu-Link.com,2013-02-26 06:32:00,
2013-02-26 01:49:00,26.8,22.6,30.10,SSW,202,1.7,-999.0,84,-99.99,,,0.00,Acu-Link.com,2013-02-26 06:49:00,
2013-02-26 02:04:00,26.4,22.5,30.08,South,180,0.0,-999.0,85,-99.99,,,0.00,Acu-Link.com,2013-02-26 07:04:00,
2013-02-26 02:20:00,26.1,22.5,30.09,East,90,0.0,-999.0,86,-99.99,,,0.00,Acu-Link.com,2013-02-26 07:20:00,
2013-02-26 02:36:00,25.7,22.4,30.09,NE,45,0.0,-999.0,87,-99.99,,,0.00,Acu-Link.com,2013-02-26 07:36:00,
2013-02-26 02:54:00,25.9,22.6,30.09,NE,45,0.0,-999.0,87,-99.99,,,0.00,Acu-Link.com,2013-02-26 07:54:00,
2013-02-26 03:25:00,25.9,22.6,30.08,SE,135,0.0,-999.0,87,-99.99,,,0.00,Acu-Link.com,2013-02-26 08:25:00,
2013-02-26 09:55:00,33.1,26.4,30.04,ESE,112,1.7,-999.0,76,-99.99,,,0.00,Acu-Link.com,2013-02-26 14:55:00,
2013-02-26 10:11:00,33.6,26.5,30.06,ESE,112,2.7,-999.0,75,-99.99,,,0.00,Acu-Link.com,2013-02-26 15:11:00,
2013-02-26 10:26:00,34.9,27.5,30.05,SSE,157,1.7,-999.0,74,-99.99,,,0.00,Acu-Link.com,2013-02-26 15:26:00,
2013-02-26 10:42:00,36.7,27.5,30.04,ESE,112,2.2,-999.0,69,-99.99,,,0.00,Acu-Link.com,2013-02-26 15:42:00,
2013-02-26 10:58:00,38.1,27.0,30.03,SSE,157,5.3,-999.0,64,-99.99,,,0.00,Acu-Link.com,2013-02-26 15:58:00,
2013-02-26 11:14:00,38.7,27.6,30.03,SE,135,3.2,-999.0,64,-99.99,,,0.00,Acu-Link.com,2013-02-26 16:14:00,
2013-02-26 11:29:00,39.4,27.9,30.02,NE,45,3.7,-999.0,63,-99.99,,,0.00,Acu-Link.com,2013-02-26 16:29:00,
2013-02-26 11:44:00,39.9,28.0,30.02,NNE,22,3.2,-999.0,62,-99.99,,,0.00,Acu-Link.com,2013-02-26 16:44:00,
2013-02-26 11:59:00,40.3,27.5,30.01,East,90,2.2,-999.0,60,-99.99,,,0.00,Acu-Link.com,2013-02-26 16:59:00,
2013-02-26 12:14:00,40.6,27.4,30.00,NNE,22,1.7,-999.0,59,-99.99,,,0.00,Acu-Link.com,2013-02-26 17:14:00,
2013-02-26 12:29:00,40.1,27.3,29.99,SSE,157,7.3,-999.0,60,-99.99,,,0.00,Acu-Link.com,2013-02-26 17:29:00,
2013-02-26 12:44:00,40.1,27.7,30.00,ESE,112,2.7,-999.0,61,-99.99,,,0.00,Acu-Link.com,2013-02-26 17:44:00,
2013-02-26 12:59:00,40.8,28.4,29.97,ESE,112,4.7,-999.0,61,-99.99,,,0.00,Acu-Link.com,2013-02-26 17:59:00,
2013-02-26 13:15:00,41.0,28.2,29.96,ESE,112,3.2,-999.0,60,-99.99,,,0.00,Acu-Link.com,2013-02-26 18:15:00,
2013-02-26 13:30:00,41.2,28.0,29.95,ESE,112,2.7,-999.0,59,-99.99,,,0.00,Acu-Link.com,2013-02-26 18:30:00,
2013-02-26 13:45:00,42.1,28.0,29.95,NE,45,5.8,-999.0,57,-99.99,,,0.00,Acu-Link.com,2013-02-26 18:45:00,
2013-02-26 14:00:00,41.4,27.3,29.95,NNW,337,3.7,-999.0,57,-99.99,,,0.00,Acu-Link.com,2013-02-26 19:00:00,
2013-02-26 14:15:00,40.8,27.2,29.94,ESE,112,1.7,-999.0,58,-99.99,,,0.00,Acu-Link.com,2013-02-26 19:15:00,
2013-02-26 14:30:00,40.8,27.6,29.93,NE,45,2.7,-999.0,59,-99.99,,,0.00,Acu-Link.com,2013-02-26 19:30:00,
2013-02-26 14:45:00,40.5,27.7,29.91,NE,45,5.8,-999.0,60,-99.99,,,0.00,Acu-Link.com,2013-02-26 19:45:00,
2013-02-26 15:00:00,39.7,29.3,29.90,ESE,112,3.2,-999.0,66,-99.99,,,0.00,Acu-Link.com,2013-02-26 20:00:00,
2013-02-26 15:16:00,39.4,29.4,29.89,ENE,67,5.3,-999.0,67,-99.99,,,0.00,Acu-Link.com,2013-02-26 20:16:00,
2013-02-26 15:31:00,39.0,30.1,29.89,East,90,0.0,-999.0,70,-99.99,,,0.00,Acu-Link.com,2013-02-26 20:31:00,
2013-02-26 15:46:00,38.5,30.3,29.87,ESE,112,3.2,-999.0,72,-99.99,,,0.00,Acu-Link.com,2013-02-26 20:46:00,
2013-02-26 16:01:00,38.3,30.4,29.86,NNE,22,2.7,-999.0,73,-99.99,,,0.00,Acu-Link.com,2013-02-26 21:01:00,
2013-02-26 16:16:00,37.9,30.4,29.86,ENE,67,4.2,-999.0,74,-99.99,,,0.00,Acu-Link.com,2013-02-26 21:16:00,
2013-02-26 16:31:00,37.4,30.2,29.86,WSW,247,3.7,-999.0,75,-99.99,,,0.00,Acu-Link.com,2013-02-26 21:31:00,
2013-02-26 16:46:00,37.0,30.5,29.84,East,90,1.7,-999.0,77,-99.99,,,0.01,Acu-Link.com,2013-02-26 21:46:00,
2013-02-26 17:31:00,36.9,30.7,29.81,ESE,112,3.7,-999.0,78,-99.99,,,0.04,Acu-Link.com,2013-02-26 22:31:00,
2013-02-26 17:59:00,35.6,32.1,29.81,ESE,112,4.7,-999.0,87,-99.99,,,0.04,Acu-Link.com,2013-02-26 22:59:00,
2013-02-26 18:21:00,35.6,32.1,29.80,ESE,112,3.2,-999.0,87,-99.99,,,0.10,Acu-Link.com,2013-02-26 23:21:00,
2013-02-26 18:39:00,35.4,32.5,29.78,NE,45,4.2,-999.0,89,-99.99,,,0.11,Acu-Link.com,2013-02-26 23:39:00,
2013-02-26 19:11:00,35.2,32.3,29.75,ENE,67,1.7,-999.0,89,-99.99,,,0.11,Acu-Link.com,2013-02-27 00:11:00,
2013-02-26 19:39:00,35.2,32.3,29.73,East,90,2.7,-999.0,89,-99.99,,,0.12,Acu-Link.com,2013-02-27 00:39:00,
2013-02-26 20:06:00,35.4,32.2,29.73,East,90,3.7,-999.0,88,-99.99,,,0.12,Acu-Link.com,2013-02-27 01:06:00,
2013-02-26 20:22:00,35.6,32.1,29.69,ESE,112,7.8,-999.0,87,-99.99,,,0.12,Acu-Link.com,2013-02-27 01:22:00,
2013-02-26 20:37:00,35.4,32.5,29.69,East,90,7.3,-999.0,89,-99.99,,,0.12,Acu-Link.com,2013-02-27 01:37:00,
2013-02-26 20:52:00,35.2,32.6,29.69,NW,315,5.3,-999.0,90,-99.99,,,0.18,Acu-Link.com,2013-02-27 01:52:00,
2013-02-26 21:07:00,35.2,32.6,29.70,SE,135,2.7,-999.0,90,-99.99,,,0.20,Acu-Link.com,2013-02-27 02:07:00,
2013-02-26 21:22:00,35.1,32.7,29.71,ESE,112,2.7,-999.0,91,-99.99,,,0.23,Acu-Link.com,2013-02-27 02:22:00,
2013-02-26 21:38:00,34.3,32.0,29.71,East,90,1.1,-999.0,91,-99.99,,,0.24,Acu-Link.com,2013-02-27 02:38:00,
2013-02-26 21:53:00,33.8,31.5,29.72,ENE,67,2.2,-999.0,91,-99.99,,,0.26,Acu-Link.com,2013-02-27 02:53:00,
2013-02-26 22:08:00,33.3,31.5,29.69,SSW,202,0.0,-999.0,93,-99.99,,,0.26,Acu-Link.com,2013-02-27 03:08:00,
2013-02-26 22:23:00,33.1,31.3,29.69,SSE,157,0.0,-999.0,93,-99.99,,,0.26,Acu-Link.com,2013-02-27 03:23:00,
2013-02-26 22:38:00,32.7,31.2,29.70,SSE,157,0.0,-999.0,94,-99.99,,,0.26,Acu-Link.com,2013-02-27 03:38:00,
2013-02-26 22:53:00,32.5,31.0,29.70,SSE,157,0.0,-999.0,94,-99.99,,,0.26,Acu-Link.com,2013-02-27 03:53:00,
2013-02-26 23:08:00,32.5,31.0,29.69,SSE,157,0.0,-999.0,94,-99.99,,,0.26,Acu-Link.com,2013-02-27 04:08:00,
2013-02-26 23:23:00,32.5,31.2,29.68,SE,135,0.0,-999.0,95,-99.99,,,0.26,Acu-Link.com,2013-02-27 04:23:00,
2013-02-26 23:39:00,32.5,31.2,29.66,SE,135,0.0,-999.0,95,-99.99,,,0.26,Acu-Link.com,2013-02-27 04:39:00,
2013-02-26 23:54:00,32.7,31.4,29.66,ESE,112,0.0,-999.0,95,-99.99,,,0.26,Acu-Link.com,2013-02-27 04:54:00,